Flag for Germany Weather past 2 weeks in Stuhr, Lower Saxony, Germany

41 °F

Sprinkles. Passing clouds.

Feels Like: 30 °F
Forecast: 41 / 51 °F
Wind: 29 mph from West

Location: Bremen Airport

Current Time: Nov 30, 2015 at 4:49:24 AM

Latest Report: Nov 30, 2015 at 4:20 AM

Visibility: N/A

Pressure: 29.77 "Hg

Humidity: 87%

Dew point: 37 °F

Location of StuhrLocation

Historic Weather in Stuhr — Graph


Stuhr temperature yesterday

Maximum temperature yesterday: 52 °F (at 6:20 PM)
Minimum temperature yesterday: 43 °F (at 12:20 AM)
Average temperature yesterday: 48 °F

Past Weeks' High & Low Weather Summary

High57 °F (Nov 15, 10:20 AM)100% (Nov 15, 3:20 AM)30.18 "Hg (Nov 15, 3:20 AM)
Low28 °F (Nov 22, 12:20 AM)57% (Nov 23, 1:20 PM)29.33 "Hg (Nov 21, 3:20 AM)
Average44 °F87%29.73 "Hg
* Reported Nov 15 3:20 AM — Nov 30 3:20 AM, Stuhr, Weather by CustomWeather, © 2015

Note: Actual official high and low records may vary slightly from our data, if they occured in-between our weather recording intervals... More about our weather records


Stuhr weather history for previous 24 hours

Time TempWeatherWind HumidityBarometerVisibility
3:20 AM
Mon, Nov 30
45 °FClear.21 mph76%29.74 "Hg10 mi
1:50 AM43 °FClear.23 mph81%29.68 "Hg10 mi
1:20 AM43 °FClear.25 mph76%29.68 "Hg10 mi
12:50 AM45 °FClear.32 mph71%29.65 "Hg10 mi
11:50 PM
Sun, Nov 29
46 °FPassing clouds.23 mph76%29.59 "HgN/A
11:20 PM46 °FSprinkles. Passing clouds.21 mph82%29.56 "HgN/A
10:50 PM48 °FPassing clouds.24 mph76%29.56 "HgN/A
10:20 PM48 °FPassing clouds.26 mph76%29.53 "HgN/A
9:50 PM48 °FPassing clouds.17 mph87%29.53 "HgN/A
9:20 PM50 °FSprinkles. Passing clouds.22 mph82%29.50 "HgN/A
8:50 PM50 °FSprinkles. Partly cloudy.25 mph82%29.50 "HgN/A
8:20 PM52 °FThunderstorms. Passing clouds.28 mph88%29.47 "Hg6 mi
7:50 PM52 °FSprinkles. Passing clouds.29 mph82%29.45 "HgN/A
7:20 PM52 °FLight rain. Passing clouds.26 mph82%29.47 "HgN/A
6:50 PM52 °FPassing clouds.24 mph82%29.47 "HgN/A
6:20 PM52 °FPassing clouds.25 mph82%29.50 "HgN/A
5:50 PM50 °FPassing clouds.24 mph88%29.50 "HgN/A
5:20 PM50 °FPassing clouds.21 mph88%29.53 "HgN/A
4:50 PM48 °FPassing clouds.17 mph94%29.53 "HgN/A
4:20 PM48 °FLight rain. Passing clouds.18 mph87%29.56 "HgN/A
3:50 PM48 °FLight rain. Partly sunny.18 mph87%29.56 "HgN/A
3:20 PM50 °FLight rain. Partly sunny.20 mph82%29.56 "HgN/A
2:50 PM50 °FPartly sunny.20 mph82%29.59 "HgN/A
2:20 PM50 °FBroken clouds.20 mph82%29.59 "HgN/A
1:50 PM50 °FPartly sunny.17 mph82%29.62 "HgN/A
1:20 PM48 °FPartly sunny.18 mph87%29.62 "HgN/A
12:50 PM48 °FPartly sunny.20 mph87%29.62 "HgN/A
12:20 PM48 °FBroken clouds.18 mph82%29.62 "HgN/A
11:50 AM48 °FBroken clouds.18 mph82%29.65 "HgN/A
11:20 AM48 °FLight rain. Broken clouds.16 mph82%29.65 "HgN/A
10:20 AM48 °FLight rain. Partly sunny.17 mph82%29.65 "HgN/A
9:50 AM48 °FBroken clouds.17 mph87%29.65 "HgN/A
9:20 AM48 °FBroken clouds.17 mph82%29.62 "HgN/A
8:50 AM46 °FBroken clouds.18 mph87%29.62 "HgN/A
7:50 AM46 °FPartly cloudy.17 mph87%29.62 "HgN/A
7:20 AM46 °FPassing clouds.16 mph87%29.62 "HgN/A
6:50 AM46 °FPassing clouds.16 mph87%29.62 "HgN/A
6:20 AM46 °FPassing clouds.16 mph87%29.59 "HgN/A
5:20 AM45 °FPassing clouds.18 mph93%29.62 "HgN/A
4:50 AM45 °FPassing clouds.20 mph87%29.59 "HgN/A
4:20 AM45 °FPassing clouds.18 mph87%29.59 "HgN/A
Weather by CustomWeather, © 2015

See weather overviewHow to use our weather pages